• In Hungary
  • List of Countries
  • For 7 days
  • Water Temperature
  • Satellite Maps
  • Weather Map
  • News
  • Weather Widgets
  • user-avatar
    Login

    Hourly Weather Gyuhryag

    Today, 16 August, Thursday

    Time Temperature Precipitation Wind Pressure Humidity
    00:00 +18°C° 0 mm 1 mps 684 mmHg 78%
    01:00 +18°C° 0 mm 1 mps 684 mmHg 77%
    02:00 +18°C° 0 mm 1 mps 684 mmHg 76%
    03:00 +18°C° 0 mm 1 mps 684 mmHg 74%
    04:00 +18°C° 0 mm 1 mps 684 mmHg 72%
    05:00 +19°C° 0 mm 1 mps 684 mmHg 71%
    06:00 +19°C° 0 mm 1 mps 684 mmHg 69%
    07:00 +20°C° 0 mm 2 mps 684 mmHg 62%
    08:00 +23°C° 0 mm 2 mps 684 mmHg 56%
    09:00 +25°C° 0 mm 2 mps 685 mmHg 49%
    10:00 +26°C° 0 mm 3 mps 684 mmHg 48%
    11:00 +27°C° 0 mm 3 mps 684 mmHg 46%
    12:00 +28°C° 0 mm 3 mps 684 mmHg 45%
    13:00 +28°C° 0 mm 4 mps 684 mmHg 46%
    14:00 +28°C° 0 mm 4 mps 684 mmHg 47%
    15:00 +28°C° 0 mm 4 mps 683 mmHg 49%
    16:00 +26°C° 0 mm 3 mps 683 mmHg 54%
    17:00 +25°C° 0 mm 3 mps 683 mmHg 59%
    18:00 +24°C° 0 mm 2 mps 682 mmHg 65%
    19:00 +23°C° 0 mm 2 mps 682 mmHg 66%
    20:00 +21°C° 0 mm 2 mps 682 mmHg 68%
    21:00 +21°C° 0 mm 1 mps 682 mmHg 70%
    22:00 +21°C° 0 mm 1 mps 682 mmHg 67%
    23:00 +21°C° 0 mm 1 mps 682 mmHg 64%

    Tomorrow, 17 August, Friday

    Time Temperature Precipitation Wind Pressure Humidity
    00:00 +20°C° 0 mm 1 mps 682 mmHg 62%
    01:00 +20°C° 0 mm 2 mps 682 mmHg 59%
    02:00 +20°C° 0 mm 2 mps 681 mmHg 56%
    03:00 +20°C° 0 mm 2 mps 681 mmHg 53%
    04:00 +20°C° 0 mm 2 mps 681 mmHg 52%
    05:00 +20°C° 0 mm 2 mps 681 mmHg 51%
    06:00 +20°C° 0 mm 2 mps 681 mmHg 50%
    07:00 +24°C° 0 mm 2 mps 681 mmHg 47%
    08:00 +26°C° 0 mm 2 mps 682 mmHg 43%
    09:00 +28°C° 0 mm 2 mps 682 mmHg 40%
    10:00 +29°C° 0 mm 2 mps 682 mmHg 39%
    11:00 +30°C° 0 mm 3 mps 682 mmHg 39%
    12:00 +30°C° 0 mm 3 mps 682 mmHg 39%
    13:00 +30°C° 0.1 mm 3 mps 681 mmHg 40%
    14:00 +30°C° 0.1 mm 3 mps 681 mmHg 41%
    15:00 +30°C° 0.1 mm 3 mps 681 mmHg 43%
    16:00 +29°C° 0.1 mm 2 mps 680 mmHg 48%
    17:00 +27°C° 0.1 mm 2 mps 680 mmHg 54%
    18:00 +26°C° 0.1 mm 1 mps 680 mmHg 59%
    19:00 +25°C° 0 mm 1 mps 680 mmHg 62%
    20:00 +24°C° 0 mm 1 mps 680 mmHg 65%
    21:00 +22°C° 0 mm 1 mps 680 mmHg 68%
    22:00 +21°C° 0 mm 2 mps 680 mmHg 67%
    23:00 +21°C° 0 mm 2 mps 679 mmHg 66%

    Day after tomorrow, 18 August, Saturday

    Time Temperature Precipitation Wind Pressure Humidity
    00:00 +21°C° 0 mm 2 mps 679 mmHg 64%
    01:00 +21°C° 0 mm 2 mps 679 mmHg 63%
    02:00 +21°C° 0 mm 2 mps 679 mmHg 61%
    03:00 +20°C° 0 mm 2 mps 679 mmHg 60%
    04:00 +21°C° 0 mm 2 mps 679 mmHg 59%
    05:00 +21°C° 0 mm 2 mps 679 mmHg 58%
    06:00 +21°C° 0 mm 2 mps 679 mmHg 57%
    07:00 +24°C° 0 mm 2 mps 679 mmHg 53%
    08:00 +26°C° 0 mm 3 mps 680 mmHg 50%
    09:00 +28°C° 0 mm 3 mps 680 mmHg 46%
    10:00 +29°C° 0 mm 4 mps 680 mmHg 46%
    11:00 +29°C° 0 mm 4 mps 680 mmHg 46%
    12:00 +30°C° 0 mm 5 mps 680 mmHg 46%
    13:00 +29°C° 0.4 mm 5 mps 680 mmHg 48%
    14:00 +29°C° 0.4 mm 5 mps 679 mmHg 50%
    15:00 +28°C° 0.4 mm 5 mps 679 mmHg 52%
    16:00 +27°C° 0.5 mm 5 mps 679 mmHg 57%
    17:00 +26°C° 0.5 mm 4 mps 679 mmHg 62%
    18:00 +23°C° 0.5 mm 4 mps 679 mmHg 68%
    19:00 +22°C° 0.1 mm 4 mps 679 mmHg 71%
    20:00 +21°C° 0.1 mm 3 mps 679 mmHg 74%
    21:00 +20°C° 0.1 mm 3 mps 680 mmHg 78%
    22:00 +20°C° 0 mm 3 mps 680 mmHg 78%
    23:00 +20°C° 0 mm 3 mps 680 mmHg 78%

    19 August, Sunday

    Time Temperature Precipitation Wind Pressure Humidity
    00:00 +20°C° 0 mm 3 mps 680 mmHg 78%
    01:00 +20°C° 0 mm 3 mps 680 mmHg 77%
    02:00 +19°C° 0 mm 3 mps 680 mmHg 76%
    03:00 +19°C° 0 mm 3 mps 680 mmHg 75%
    04:00 +19°C° 0.1 mm 3 mps 680 mmHg 74%
    05:00 +19°C° 0.1 mm 3 mps 680 mmHg 73%
    06:00 +19°C° 0.1 mm 3 mps 680 mmHg 72%
    07:00 +21°C° 0 mm 4 mps 681 mmHg 62%
    08:00 +22°C° 0 mm 4 mps 681 mmHg 52%
    09:00 +25°C° 0 mm 5 mps 682 mmHg 43%
    10:00 +25°C° 0 mm 5 mps 682 mmHg 43%
    11:00 +25°C° 0 mm 5 mps 682 mmHg 44%
    12:00 +26°C° 0 mm 5 mps 682 mmHg 45%
    13:00 +25°C° 0.1 mm 5 mps 682 mmHg 49%
    14:00 +25°C° 0.1 mm 4 mps 682 mmHg 53%
    15:00 +23°C° 0.1 mm 4 mps 682 mmHg 57%
    16:00 +22°C° 0.2 mm 4 mps 682 mmHg 65%
    17:00 +21°C° 0.2 mm 3 mps 682 mmHg 72%
    18:00 +20°C° 0.2 mm 3 mps 682 mmHg 80%
    19:00 +19°C° 0.2 mm 2 mps 682 mmHg 84%
    20:00 +19°C° 0.2 mm 2 mps 682 mmHg 88%
    21:00 +18°C° 0.2 mm 2 mps 683 mmHg 92%
    22:00 +19°C° 0 mm 1 mps 683 mmHg 92%
    23:00 +19°C° 0 mm 1 mps 683 mmHg 92%

    20 August, Monday

    Time Temperature Precipitation Wind Pressure Humidity
    00:00 +18°C° 0 mm 1 mps 683 mmHg 92%
    01:00 +18°C° 0 mm 1 mps 683 mmHg 92%
    02:00 +18°C° 0 mm 1 mps 683 mmHg 92%
    03:00 +16°C° 0 mm 1 mps 682 mmHg 93%
    04:00 +18°C° 0 mm 1 mps 683 mmHg 91%
    05:00 +18°C° 0 mm 1 mps 683 mmHg 89%
    06:00 +18°C° 0 mm 1 mps 683 mmHg 87%
    07:00 +19°C° 0 mm 1 mps 684 mmHg 79%
    08:00 +20°C° 0 mm 2 mps 684 mmHg 71%
    09:00 +21°C° 0 mm 2 mps 684 mmHg 63%
    10:00 +23°C° 0 mm 2 mps 684 mmHg 61%
    11:00 +24°C° 0 mm 3 mps 684 mmHg 58%
    12:00 +24°C° 0 mm 3 mps 684 mmHg 56%
    13:00 +24°C° 0 mm 3 mps 684 mmHg 55%
    14:00 +24°C° 0 mm 3 mps 684 mmHg 55%
    15:00 +24°C° 0 mm 3 mps 684 mmHg 55%
    16:00 +22°C° 0 mm 3 mps 684 mmHg 59%
    17:00 +21°C° 0 mm 3 mps 684 mmHg 63%
    18:00 +20°C° 0 mm 2 mps 684 mmHg 67%
    19:00 +19°C° 0 mm 2 mps 684 mmHg 71%
    20:00 +18°C° 0 mm 2 mps 684 mmHg 75%
    21:00 +17°C° 0 mm 2 mps 684 mmHg 79%
    22:00 +18°C° 0 mm 1 mps 684 mmHg 78%
    23:00 +16°C° 0 mm 1 mps 684 mmHg 78%

    21 August, Tuesday

    Time Temperature Precipitation Wind Pressure Humidity
    00:00 +16°C° 0 mm 1 mps 684 mmHg 77%
    01:00 +16°C° 0 mm 1 mps 684 mmHg 77%
    02:00 +16°C° 0 mm 1 mps 684 mmHg 77%
    03:00 +16°C° 0 mm 1 mps 683 mmHg 77%
    04:00 +16°C° 0 mm 1 mps 684 mmHg 75%
    05:00 +18°C° 0 mm 1 mps 684 mmHg 73%
    06:00 +18°C° 0 mm 1 mps 684 mmHg 71%
    07:00 +20°C° 0 mm 1 mps 685 mmHg 64%
    08:00 +21°C° 0 mm 2 mps 685 mmHg 57%
    09:00 +24°C° 0 mm 2 mps 685 mmHg 51%
    10:00 +25°C° 0 mm 2 mps 685 mmHg 49%
    11:00 +25°C° 0 mm 3 mps 685 mmHg 47%
    12:00 +26°C° 0 mm 3 mps 685 mmHg 45%
    13:00 +26°C° 0 mm 3 mps 685 mmHg 46%
    14:00 +26°C° 0 mm 3 mps 685 mmHg 47%
    15:00 +25°C° 0 mm 3 mps 685 mmHg 49%
    16:00 +24°C° 0 mm 3 mps 685 mmHg 53%
    17:00 +22°C° 0 mm 3 mps 685 mmHg 57%
    18:00 +21°C° 0 mm 2 mps 685 mmHg 62%
    19:00 +20°C° 0 mm 2 mps 685 mmHg 65%
    20:00 +19°C° 0 mm 2 mps 685 mmHg 68%
    21:00 +17°C° 0 mm 2 mps 685 mmHg 71%
    22:00 +18°C° 0 mm 1 mps 685 mmHg 70%
    23:00 +18°C° 0 mm 1 mps 684 mmHg 70%
    Show more